Location: Glen Avon
(34.0117°N, 117.4848°W)
Time: 14:55:37
(UTC+00:00)

FENGYUN 3A - Pass Details

Date: 01 August 2021
Orbit: 822 x 837 km, 98.5° (Epoch: 17 September)

Event Time Altitude Azimuth Distance (km) Brightness Sun altitude
Rises 12:09:20 0° 6° (N) 3,383 7.4 -10.6°
Reaches altitude 10° 12:11:45 10° 2° (N) 2,443 6.5 -10.1°
Maximum altitude 12:16:59 51° 287° (WNW) 1,029 3.9 -9.2°
Drops below altitude 10° 12:22:10 10° 212° (SSW) 2,421 5.6 -8.2°
Enters shadow 12:23:27 - 209° (SSW) 2,918 6.0 -8.0°
